Weather History for PADK - December, 2012

Change the Weather History Date:

Sunday, December 16, 2012

  Actual Average Record
Temperature  
Mean Temperature 32 °F -  
Max Temperature 37 °F 38 °F 71 °F (2003)
Min Temperature 26 °F 30 °F 12 °F (1965)
Degree Days  
Heating Degree Days 34    
Moisture  
Dew Point 31 °F    
Average Humidity 86    
Maximum Humidity 93    
Minimum Humidity 70    
Precipitation  
Precipitation 0.04 in - - ()
Sea Level Pressure  
Sea Level Pressure 29.81 in    
Wind  
Wind Speed 9 mph (SSW)    
Max Wind Speed 28 mph    
Max Gust Speed 32 mph    
Visibility 9 miles    
Events      
Averages and records for this station are not official NWS values.
T = Trace of Precipitation, MM = Missing Value Source: NWS Daily Summary

Daily Weather History Graph

Daily Weather History Graph

Search for Another Location

Airport or City:

Trip Planner

Search our weather history database for the weather conditions in past years. The results will help you decide how hot, cold, wet, or windy it might be!

Date:

Astronomy

Dec. 16, 2012 Rise Set
Actual Time 9:49 AM HST 5:36 PM HST
Civil Twilight 9:08 AM HST 6:16 PM HST
Nautical Twilight 8:24 AM HST 7:00 PM HST
Astronomical Twilight 7:43 AM HST 7:41 PM HST
Moon 12:06 PM HST (12/16) 10:34 PM HST (12/16)
Length of Visible Light 9h 08m
Length of Day
7h 47m
Waxing Crescent, 17% of the Moon is Illuminated
Dec 16
Waxing Crescent
Dec 19
First Quarter
Dec 28
Full
Jan 4
Last Quarter
Jan 11
New

Hourly Weather History & Observations

Time (HST) Temp. Windchill Dew Point Humidity Pressure Visibility Wind Dir Wind Speed Gust Speed Precip Events Conditions
12:16 AM 30.2 °F - 28.4 °F 93% 29.98 in 8.0 mi Calm Calm - N/A   Overcast
12:36 AM 30.2 °F 24.3 °F 28.4 °F 93% 29.98 in 10.0 mi North 5.8 mph - N/A   Mostly Cloudy
12:56 AM 28.4 °F 21.2 °F 26.6 °F 93% 29.98 in 10.0 mi SSE 6.9 mph - N/A   Scattered Clouds
1:16 AM 26.6 °F - 24.8 °F 93% 29.99 in 10.0 mi Calm Calm - N/A   Scattered Clouds
1:36 AM 26.6 °F - 24.8 °F 93% 29.98 in 10.0 mi Calm Calm - N/A   Mostly Cloudy
1:56 AM 26.6 °F - 24.8 °F 93% 29.98 in 10.0 mi Calm Calm - N/A   Mostly Cloudy
2:16 AM 28.4 °F - 24.8 °F 86% 29.98 in 10.0 mi Calm Calm - N/A   Overcast
2:36 AM 30.2 °F 25.4 °F 26.6 °F 86% 29.97 in 10.0 mi SSW 4.6 mph - N/A   Mostly Cloudy
2:56 AM 26.6 °F 21.2 °F 23.0 °F 86% 29.98 in 10.0 mi WSW 4.6 mph - N/A   Partly Cloudy
3:16 AM 26.6 °F 21.2 °F 21.2 °F 80% 29.97 in 10.0 mi SW 4.6 mph - N/A   Clear
3:36 AM 26.6 °F 16.8 °F 23.0 °F 86% 29.97 in 10.0 mi South 10.4 mph - N/A   Clear
3:56 AM 32.0 °F 23.0 °F 26.6 °F 80% 29.97 in 10.0 mi South 11.5 mph - N/A   Partly Cloudy
4:16 AM 32.0 °F - 26.6 °F 80% 29.97 in 10.0 mi Calm Calm - N/A   Mostly Cloudy
4:36 AM 33.8 °F 27.0 °F 26.6 °F 75% 29.97 in 10.0 mi SSW 8.1 mph - N/A   Overcast
4:56 AM 33.8 °F 23.2 °F 30.2 °F 87% 29.97 in 5.0 mi WSW 17.3 mph 23.0 mph N/A   Mostly Cloudy
5:16 AM 33.8 °F 22.8 °F 30.2 °F 87% 29.98 in 10.0 mi WSW 18.4 mph - N/A   Overcast
5:36 AM 33.8 °F 24.8 °F 30.2 °F 87% 29.97 in 7.0 mi SW 12.7 mph - N/A   Mostly Cloudy
5:56 AM 33.8 °F 25.8 °F 28.4 °F 81% 29.96 in 10.0 mi South 10.4 mph - N/A   Mostly Cloudy
6:16 AM 33.8 °F 25.3 °F 26.6 °F 75% 29.96 in 10.0 mi SSW 11.5 mph - N/A   Scattered Clouds
6:36 AM 33.8 °F 25.3 °F 28.4 °F 81% 29.96 in 10.0 mi SSW 11.5 mph - N/A   Mostly Cloudy
6:56 AM 35.6 °F 25.9 °F 28.4 °F 75% 29.96 in 10.0 mi SW 16.1 mph - N/A   Overcast
7:16 AM 35.6 °F 27.5 °F 30.2 °F 81% 29.95 in 8.0 mi SSW 11.5 mph - N/A   Overcast
7:36 AM 35.6 °F 26.2 °F 30.2 °F 81% 29.95 in 9.0 mi South 15.0 mph - N/A   Overcast
7:56 AM 33.8 °F 24.8 °F 30.2 °F 87% 29.94 in 7.0 mi SSW 12.7 mph 17.3 mph 0.01 in   Overcast
8:16 AM 35.6 °F 25.9 °F 30.2 °F 81% 29.94 in 10.0 mi SSW 16.1 mph 21.9 mph N/A   Mostly Cloudy
8:36 AM 35.6 °F 26.2 °F 30.2 °F 81% 29.94 in 10.0 mi SSW 15.0 mph 24.2 mph N/A   Overcast
8:56 AM 35.6 °F 25.5 °F 30.2 °F 81% 29.93 in 10.0 mi SSW 17.3 mph 27.6 mph N/A   Overcast
9:16 AM 35.6 °F 26.2 °F 28.4 °F 75% 29.93 in 10.0 mi SW 15.0 mph 25.3 mph N/A   Mostly Cloudy
9:36 AM 35.6 °F 26.2 °F 28.4 °F 75% 29.93 in 10.0 mi SSW 15.0 mph 24.2 mph N/A   Mostly Cloudy
9:56 AM 35.6 °F 25.5 °F 28.4 °F 75% 29.93 in 10.0 mi SW 17.3 mph 23.0 mph N/A   Overcast
10:16 AM 35.6 °F 25.5 °F 28.4 °F 75% 29.92 in 10.0 mi SSW 17.3 mph - N/A   Overcast
10:36 AM 35.6 °F 26.2 °F 28.4 °F 75% 29.91 in 10.0 mi South 15.0 mph - N/A   Mostly Cloudy
10:56 AM 37.4 °F 27.2 °F 30.2 °F 75% 29.91 in 10.0 mi SSW 19.6 mph - N/A   Overcast
11:16 AM 37.4 °F 28.2 °F 28.4 °F 70% 29.90 in 10.0 mi SSW 16.1 mph 24.2 mph N/A   Overcast
11:36 AM 37.4 °F 26.4 °F 30.2 °F 75% 29.89 in 10.0 mi SW 23.0 mph 27.6 mph N/A   Mostly Cloudy
11:56 AM 37.4 °F 26.1 °F 30.2 °F 75% 29.89 in 10.0 mi SSW 24.2 mph 27.6 mph N/A   Overcast
12:16 PM 37.4 °F 26.6 °F 30.2 °F 75% 29.88 in 10.0 mi SSW 21.9 mph 26.5 mph N/A   Mostly Cloudy
12:36 PM 37.4 °F 26.4 °F 30.2 °F 75% 29.87 in 10.0 mi SSW 23.0 mph 26.5 mph N/A   Overcast
12:56 PM 37.4 °F 27.2 °F 30.2 °F 75% 29.86 in 10.0 mi SSW 19.6 mph 25.3 mph N/A   Overcast
1:16 PM 37.4 °F 26.1 °F 30.2 °F 75% 29.85 in 8.0 mi SW 24.2 mph 28.8 mph N/A   Overcast
1:36 PM 37.4 °F 26.6 °F 32.0 °F 81% 29.84 in 8.0 mi WSW 21.9 mph 25.3 mph N/A   Overcast
1:56 PM 37.4 °F 25.4 °F 33.8 °F 87% 29.83 in 7.0 mi SW 27.6 mph 32.2 mph N/A   Overcast
2:16 PM 35.6 °F 23.4 °F 33.8 °F 93% 29.83 in 4.0 mi SW 25.3 mph 29.9 mph 0.01 in   Overcast
2:36 PM 35.6 °F 25.9 °F 32.0 °F 87% 29.82 in 5.0 mi WSW 16.1 mph 21.9 mph 0.01 in   Overcast
2:56 PM 33.8 °F 23.5 °F 32.0 °F 93% 29.81 in 7.0 mi WSW 16.1 mph - 0.02 in   Overcast
3:16 PM 33.8 °F 25.3 °F 32.0 °F 93% 29.80 in 6.0 mi WSW 11.5 mph 19.6 mph 0.01 in   Overcast
3:36 PM 33.8 °F 25.8 °F 32.0 °F 93% 29.78 in 9.0 mi WSW 10.4 mph - 0.02 in   Overcast
3:56 PM 35.6 °F 31.7 °F 33.8 °F 93% 29.77 in 10.0 mi SW 4.6 mph - 0.02 in   Overcast
4:16 PM 35.6 °F 29.9 °F 33.8 °F 93% 29.76 in 10.0 mi South 6.9 mph - N/A   Overcast
4:36 PM 35.6 °F 28.6 °F 32.0 °F 87% 29.75 in 10.0 mi South 9.2 mph - N/A   Overcast
4:56 PM 35.6 °F 29.2 °F 33.8 °F 93% 29.74 in 10.0 mi South 8.1 mph - N/A   Overcast
5:16 PM 35.6 °F 29.9 °F 33.8 °F 93% 29.73 in 10.0 mi SSW 6.9 mph - N/A   Overcast
5:36 PM 35.6 °F 29.2 °F 32.0 °F 87% 29.71 in 10.0 mi South 8.1 mph - N/A   Overcast
5:56 PM 35.6 °F 27.1 °F 33.8 °F 93% 29.70 in 10.0 mi South 12.7 mph - N/A   Overcast
6:16 PM 35.6 °F 28.0 °F 33.8 °F 93% 29.68 in 10.0 mi SSW 10.4 mph - N/A   Overcast
6:36 PM 35.6 °F 27.5 °F 33.8 °F 93% 29.67 in 10.0 mi SSW 11.5 mph - N/A   Overcast
6:56 PM 35.6 °F 30.7 °F 32.0 °F 87% 29.65 in 10.0 mi SSW 5.8 mph - N/A   Overcast
7:16 PM 35.6 °F 29.9 °F 33.8 °F 93% 29.64 in 10.0 mi South 6.9 mph - N/A   Overcast
7:36 PM 35.6 °F 29.9 °F 33.8 °F 93% 29.62 in 10.0 mi South 6.9 mph - N/A   Overcast
7:56 PM 35.6 °F 31.7 °F 33.8 °F 93% 29.62 in 10.0 mi South 4.6 mph - N/A   Overcast
8:16 PM 35.6 °F 31.7 °F 33.8 °F 93% 29.60 in 10.0 mi SSE 4.6 mph - N/A   Overcast
8:36 PM 35.6 °F - 33.8 °F 93% 29.58 in 8.0 mi Calm Calm - N/A   Overcast
8:56 PM 35.6 °F - 33.8 °F 93% 29.56 in 9.0 mi Calm Calm - N/A   Overcast
9:16 PM 35.6 °F 31.7 °F 33.8 °F 93% 29.54 in 10.0 mi North 4.6 mph - N/A   Overcast
9:36 PM 37.4 °F 30.8 °F 35.6 °F 93% 29.52 in 10.0 mi ESE 9.2 mph - N/A   Overcast
9:56 PM 37.4 °F 30.8 °F 35.6 °F 93% 29.50 in 10.0 mi East 9.2 mph - N/A   Overcast
10:16 PM 37.4 °F 28.2 °F 35.6 °F 93% 29.49 in 10.0 mi ESE 16.1 mph - N/A   Overcast
10:36 PM 37.4 °F 29.8 °F 33.8 °F 87% 29.47 in 10.0 mi ESE 11.5 mph - N/A   Overcast
10:56 PM 37.4 °F 30.8 °F 35.6 °F 93% 29.45 in 10.0 mi East 9.2 mph - N/A   Overcast
11:16 PM 37.4 °F 31.4 °F 35.6 °F 93% 29.44 in 10.0 mi East 8.1 mph - N/A   Overcast
11:36 PM 37.4 °F 32.8 °F 33.8 °F 87% 29.43 in 10.0 mi East 5.8 mph - N/A   Overcast
11:56 PM 37.4 °F 31.4 °F 35.6 °F 93% 29.42 in 10.0 mi ENE 8.1 mph - N/A   Overcast